Time,TemperatureF,DewpointF,PressureIn,WindDirection,WindDirectionDegrees,WindSpeedMPH,WindSpeedGustMPH,Humidity,HourlyPrecipIn,Conditions,Clouds,dailyrainin,SoftwareType,DateUTC
2013-03-24 00:00:00,31.3,19.4,30.04,NNE,22,0.0,0.0,61,0.00,,,0.00,WUHU21636XXSP,2013-03-24 05:00:00,
2013-03-24 00:05:00,31.3,19.4,30.04,NNE,22,0.0,0.0,61,0.00,,,0.00,WUHU21636XXSP,2013-03-24 05:05:00,
2013-03-24 00:10:00,31.3,19.4,30.04,NNE,22,0.0,0.0,61,0.00,,,0.00,WUHU21636XXSP,2013-03-24 05:10:00,
2013-03-24 00:15:00,31.3,19.4,30.04,NNE,22,0.0,0.0,61,0.00,,,0.00,WUHU21636XXSP,2013-03-24 05:15:00,
2013-03-24 00:20:00,31.3,19.4,30.04,NNE,22,0.0,0.0,61,0.00,,,0.00,WUHU21636XXSP,2013-03-24 05:20:00,
2013-03-24 00:25:00,31.1,19.2,30.04,NNE,22,0.0,0.0,61,0.00,,,0.00,WUHU21636XXSP,2013-03-24 05:25:00,
2013-03-24 00:30:00,31.1,19.6,30.04,NNE,22,0.0,0.0,62,0.00,,,0.00,WUHU21636XXSP,2013-03-24 05:30:00,
2013-03-24 00:35:00,31.1,19.6,30.04,NNE,22,0.0,0.0,62,0.00,,,0.00,WUHU21636XXSP,2013-03-24 05:35:00,
2013-03-24 00:40:00,31.1,20.0,30.05,NNE,22,0.0,0.0,63,0.00,,,0.00,WUHU21636XXSP,2013-03-24 05:40:00,
2013-03-24 00:45:00,30.9,19.8,30.05,NNE,22,0.0,0.0,63,0.00,,,0.00,WUHU21636XXSP,2013-03-24 05:45:00,
2013-03-24 00:50:00,30.9,19.8,30.04,East,90,0.0,0.0,63,0.00,,,0.00,WUHU21636XXSP,2013-03-24 05:50:00,
2013-03-24 00:55:00,30.8,19.7,30.04,East,90,0.0,0.0,63,0.00,,,0.00,WUHU21636XXSP,2013-03-24 05:55:00,
2013-03-24 01:00:00,30.6,19.9,30.04,ENE,67,0.0,0.0,64,0.00,,,0.00,WUHU21636XXSP,2013-03-24 06:00:00,
2013-03-24 01:05:00,30.6,19.9,30.04,ENE,67,0.0,0.0,64,0.00,,,0.00,WUHU21636XXSP,2013-03-24 06:05:00,
2013-03-24 01:10:00,30.6,19.9,30.04,ENE,67,0.0,0.0,64,0.00,,,0.00,WUHU21636XXSP,2013-03-24 06:10:00,
2013-03-24 01:15:00,30.3,19.7,30.04,ENE,67,0.0,0.0,64,0.00,,,0.00,WUHU21636XXSP,2013-03-24 06:15:00,
2013-03-24 01:20:00,30.3,19.7,30.04,ENE,67,0.0,0.0,64,0.00,,,0.00,WUHU21636XXSP,2013-03-24 06:20:00,
2013-03-24 01:25:00,30.3,19.7,30.04,ENE,67,0.0,0.0,64,0.00,,,0.00,WUHU21636XXSP,2013-03-24 06:25:00,
2013-03-24 01:30:00,30.3,19.3,30.04,ENE,67,0.0,0.0,63,0.00,,,0.00,WUHU21636XXSP,2013-03-24 06:30:00,
2013-03-24 01:35:00,30.1,19.1,30.03,ENE,67,0.0,0.0,63,0.00,,,0.00,WUHU21636XXSP,2013-03-24 06:35:00,
2013-03-24 01:40:00,30.1,19.5,30.03,ENE,67,0.0,0.0,64,0.00,,,0.00,WUHU21636XXSP,2013-03-24 06:40:00,
2013-03-24 01:45:00,30.1,19.8,30.03,ENE,67,0.0,0.0,65,0.00,,,0.00,WUHU21636XXSP,2013-03-24 06:45:00,
2013-03-24 01:50:00,30.1,20.6,30.03,ENE,67,0.0,0.0,67,0.00,,,0.00,WUHU21636XXSP,2013-03-24 06:50:00,
2013-03-24 01:55:00,30.1,20.2,30.03,ENE,67,0.0,0.0,66,0.00,,,0.00,WUHU21636XXSP,2013-03-24 06:55:00,
2013-03-24 02:00:00,30.1,20.6,30.04,ENE,67,0.0,0.0,67,0.00,,,0.00,WUHU21636XXSP,2013-03-24 07:00:00,
2013-03-24 02:05:00,29.9,20.0,30.03,ENE,67,0.0,0.0,66,0.00,,,0.00,WUHU21636XXSP,2013-03-24 07:05:00,
2013-03-24 02:10:00,29.9,20.0,30.03,ENE,67,0.0,0.0,66,0.00,,,0.00,WUHU21636XXSP,2013-03-24 07:10:00,
2013-03-24 02:15:00,29.9,20.4,30.03,ENE,67,0.0,0.0,67,0.00,,,0.00,WUHU21636XXSP,2013-03-24 07:15:00,
2013-03-24 02:20:00,29.9,20.4,30.03,ENE,67,0.0,0.0,67,0.00,,,0.00,WUHU21636XXSP,2013-03-24 07:20:00,
2013-03-24 02:25:00,29.6,20.1,30.02,ENE,67,0.0,0.0,67,0.00,,,0.00,WUHU21636XXSP,2013-03-24 07:25:00,
2013-03-24 02:30:00,29.6,20.4,30.03,ENE,67,0.0,0.0,68,0.00,,,0.00,WUHU21636XXSP,2013-03-24 07:30:00,
2013-03-24 02:35:00,29.4,20.2,30.03,ENE,67,0.0,0.0,68,0.00,,,0.00,WUHU21636XXSP,2013-03-24 07:35:00,
2013-03-24 02:40:00,29.4,20.2,30.03,ENE,67,0.0,0.0,68,0.00,,,0.00,WUHU21636XXSP,2013-03-24 07:40:00,
2013-03-24 02:45:00,29.4,20.2,30.03,ENE,67,0.0,0.0,68,0.00,,,0.00,WUHU21636XXSP,2013-03-24 07:45:00,
2013-03-24 02:50:00,29.4,20.2,30.03,ENE,67,0.0,0.0,68,0.00,,,0.00,WUHU21636XXSP,2013-03-24 07:50:00,
2013-03-24 02:55:00,29.2,20.0,30.03,ENE,67,0.0,0.0,68,0.00,,,0.00,WUHU21636XXSP,2013-03-24 07:55:00,
2013-03-24 03:00:00,29.2,20.0,30.03,ENE,67,0.0,0.0,68,0.00,,,0.00,WUHU21636XXSP,2013-03-24 08:00:00,
2013-03-24 03:05:00,29.2,20.0,30.03,ENE,67,0.0,0.0,68,0.00,,,0.00,WUHU21636XXSP,2013-03-24 08:05:00,
2013-03-24 03:10:00,29.2,20.0,30.03,ENE,67,0.0,0.0,68,0.00,,,0.00,WUHU21636XXSP,2013-03-24 08:10:00,
2013-03-24 03:15:00,29.0,19.8,30.03,ENE,67,0.0,0.0,68,0.00,,,0.00,WUHU21636XXSP,2013-03-24 08:15:00,
2013-03-24 03:20:00,29.0,20.1,30.02,ENE,67,0.0,0.0,69,0.00,,,0.00,WUHU21636XXSP,2013-03-24 08:20:00,
2013-03-24 03:25:00,29.0,20.1,30.02,ENE,67,0.0,0.0,69,0.00,,,0.00,WUHU21636XXSP,2013-03-24 08:25:00,
2013-03-24 03:30:00,29.0,20.1,30.02,ENE,67,0.0,0.0,69,0.00,,,0.00,WUHU21636XXSP,2013-03-24 08:30:00,
2013-03-24 03:35:00,29.0,20.1,30.02,ENE,67,0.0,0.0,69,0.00,,,0.00,WUHU21636XXSP,2013-03-24 08:35:00,
2013-03-24 03:40:00,29.0,20.1,30.02,ENE,67,0.0,0.0,69,0.00,,,0.00,WUHU21636XXSP,2013-03-24 08:40:00,
2013-03-24 03:45:00,29.0,20.1,30.02,ENE,67,0.0,0.0,69,0.00,,,0.00,WUHU21636XXSP,2013-03-24 08:45:00,
2013-03-24 03:50:00,29.0,19.8,30.02,ENE,67,0.0,0.0,68,0.00,,,0.00,WUHU21636XXSP,2013-03-24 08:50:00,
2013-03-24 03:55:00,29.0,19.1,30.01,ENE,67,0.0,0.0,66,0.00,,,0.00,WUHU21636XXSP,2013-03-24 08:55:00,
2013-03-24 04:00:00,29.0,19.1,30.02,ENE,67,0.0,0.0,66,0.00,,,0.00,WUHU21636XXSP,2013-03-24 09:00:00,
2013-03-24 04:05:00,29.2,19.3,30.01,ENE,67,0.0,0.0,66,0.00,,,0.00,WUHU21636XXSP,2013-03-24 09:05:00,
2013-03-24 04:10:00,29.2,19.7,30.01,ENE,67,0.0,0.0,67,0.00,,,0.00,WUHU21636XXSP,2013-03-24 09:10:00,
2013-03-24 04:15:00,29.2,20.0,30.02,ENE,67,0.0,0.0,68,0.00,,,0.00,WUHU21636XXSP,2013-03-24 09:15:00,
2013-03-24 04:20:00,29.4,19.9,30.02,ENE,67,0.0,0.0,67,0.00,,,0.00,WUHU21636XXSP,2013-03-24 09:20:00,
2013-03-24 04:25:00,29.2,19.7,30.01,ENE,67,0.0,0.0,67,0.00,,,0.00,WUHU21636XXSP,2013-03-24 09:25:00,
2013-03-24 04:30:00,29.4,19.9,30.01,ENE,67,0.0,0.0,67,0.00,,,0.00,WUHU21636XXSP,2013-03-24 09:30:00,
2013-03-24 04:35:00,29.2,19.7,30.01,ENE,67,0.0,0.0,67,0.00,,,0.00,WUHU21636XXSP,2013-03-24 09:35:00,
2013-03-24 04:40:00,29.2,19.7,30.01,ENE,67,0.0,0.0,67,0.00,,,0.00,WUHU21636XXSP,2013-03-24 09:40:00,
2013-03-24 04:45:00,29.2,19.7,30.01,ENE,67,0.0,0.0,67,0.00,,,0.00,WUHU21636XXSP,2013-03-24 09:45:00,
2013-03-24 04:50:00,29.2,19.7,30.01,ENE,67,0.0,0.0,67,0.00,,,0.00,WUHU21636XXSP,2013-03-24 09:50:00,
2013-03-24 04:55:00,29.2,19.3,30.01,ENE,67,0.0,0.0,66,0.00,,,0.00,WUHU21636XXSP,2013-03-24 09:55:00,
2013-03-24 05:00:00,29.2,19.7,30.00,ENE,67,0.0,0.0,67,0.00,,,0.00,WUHU21636XXSP,2013-03-24 10:00:00,
2013-03-24 05:05:00,29.2,20.0,30.00,ENE,67,0.0,0.0,68,0.00,,,0.00,WUHU21636XXSP,2013-03-24 10:05:00,
2013-03-24 05:10:00,29.2,20.0,30.00,ENE,67,0.0,0.0,68,0.00,,,0.00,WUHU21636XXSP,2013-03-24 10:10:00,
2013-03-24 05:15:00,29.2,19.7,30.00,ENE,67,0.0,0.0,67,0.00,,,0.00,WUHU21636XXSP,2013-03-24 10:15:00,
2013-03-24 05:20:00,29.2,19.7,30.00,ENE,67,0.0,0.0,67,0.00,,,0.00,WUHU21636XXSP,2013-03-24 10:20:00,
2013-03-24 05:25:00,29.2,19.7,29.99,ENE,67,0.0,0.0,67,0.00,,,0.00,WUHU21636XXSP,2013-03-24 10:25:00,
2013-03-24 05:30:00,29.2,19.3,29.99,ENE,67,0.0,0.0,66,0.00,,,0.00,WUHU21636XXSP,2013-03-24 10:30:00,
2013-03-24 05:35:00,29.2,19.7,29.99,ENE,67,0.0,0.0,67,0.00,,,0.00,WUHU21636XXSP,2013-03-24 10:35:00,
2013-03-24 05:40:00,29.2,19.7,29.99,ENE,67,0.0,0.0,67,0.00,,,0.00,WUHU21636XXSP,2013-03-24 10:40:00,
2013-03-24 05:45:00,29.2,19.3,29.99,ENE,67,0.0,0.0,66,0.00,,,0.00,WUHU21636XXSP,2013-03-24 10:45:00,
2013-03-24 05:50:00,29.2,19.7,29.98,ENE,67,0.0,0.0,67,0.00,,,0.00,WUHU21636XXSP,2013-03-24 10:50:00,
2013-03-24 05:55:00,29.2,19.7,29.99,ENE,67,0.0,0.0,67,0.00,,,0.00,WUHU21636XXSP,2013-03-24 10:55:00,
2013-03-24 06:00:00,29.2,19.7,29.98,ENE,67,0.0,0.0,67,0.00,,,0.00,WUHU21636XXSP,2013-03-24 11:00:00,
2013-03-24 06:05:00,29.2,19.7,29.98,ENE,67,0.0,0.0,67,0.00,,,0.00,WUHU21636XXSP,2013-03-24 11:05:00,
2013-03-24 06:10:00,29.2,19.7,29.98,ENE,67,0.0,0.0,67,0.00,,,0.00,WUHU21636XXSP,2013-03-24 11:10:00,
2013-03-24 06:15:00,29.2,19.3,29.98,ENE,67,0.0,0.0,66,0.00,,,0.00,WUHU21636XXSP,2013-03-24 11:15:00,
2013-03-24 06:20:00,29.2,19.7,29.99,ENE,67,0.0,0.0,67,0.00,,,0.00,WUHU21636XXSP,2013-03-24 11:20:00,
2013-03-24 06:25:00,29.2,19.3,29.99,ENE,67,0.0,0.0,66,0.00,,,0.00,WUHU21636XXSP,2013-03-24 11:25:00,
2013-03-24 06:30:00,29.0,19.5,29.99,ENE,67,0.0,0.0,67,0.00,,,0.00,WUHU21636XXSP,2013-03-24 11:30:00,
2013-03-24 06:35:00,29.2,19.7,29.99,ENE,67,0.0,0.0,67,0.00,,,0.00,WUHU21636XXSP,2013-03-24 11:35:00,
2013-03-24 06:40:00,29.2,19.7,29.99,ENE,67,0.0,0.0,67,0.00,,,0.00,WUHU21636XXSP,2013-03-24 11:40:00,
2013-03-24 06:45:00,29.2,19.3,29.99,ENE,67,0.0,0.0,66,0.00,,,0.00,WUHU21636XXSP,2013-03-24 11:45:00,
2013-03-24 06:50:00,29.2,20.0,29.99,ENE,67,0.0,0.0,68,0.00,,,0.00,WUHU21636XXSP,2013-03-24 11:50:00,
2013-03-24 06:55:00,29.2,19.7,29.99,ENE,67,0.0,0.0,67,0.00,,,0.00,WUHU21636XXSP,2013-03-24 11:55:00,
2013-03-24 07:00:00,29.2,20.0,29.99,ENE,67,0.0,0.0,68,0.00,,,0.00,WUHU21636XXSP,2013-03-24 12:00:00,
2013-03-24 07:05:00,29.0,19.5,29.99,ENE,67,0.0,0.0,67,0.00,,,0.00,WUHU21636XXSP,2013-03-24 12:05:00,
2013-03-24 07:10:00,29.2,19.7,29.99,ENE,67,0.0,0.0,67,0.00,,,0.00,WUHU21636XXSP,2013-03-24 12:10:00,
2013-03-24 07:15:00,29.2,19.7,29.98,ENE,67,0.0,0.0,67,0.00,,,0.00,WUHU21636XXSP,2013-03-24 12:15:00,
2013-03-24 07:20:00,29.2,20.0,29.99,ENE,67,0.0,0.0,68,0.00,,,0.00,WUHU21636XXSP,2013-03-24 12:20:00,
2013-03-24 07:25:00,29.2,19.7,29.99,ENE,67,0.0,0.0,67,0.00,,,0.00,WUHU21636XXSP,2013-03-24 12:25:00,
2013-03-24 07:30:00,29.2,19.7,29.98,ENE,67,0.0,0.0,67,0.00,,,0.00,WUHU21636XXSP,2013-03-24 12:30:00,
2013-03-24 07:35:00,29.2,19.7,29.98,NE,45,0.0,0.0,67,0.00,,,0.00,WUHU21636XXSP,2013-03-24 12:35:00,
2013-03-24 07:40:00,29.2,19.7,29.98,NE,45,0.0,0.0,67,0.00,,,0.00,WUHU21636XXSP,2013-03-24 12:40:00,
2013-03-24 07:45:00,29.2,19.7,29.98,NE,45,0.0,0.0,67,0.00,,,0.00,WUHU21636XXSP,2013-03-24 12:45:00,
2013-03-24 07:50:00,29.2,19.7,29.98,NE,45,0.0,0.0,67,0.00,,,0.00,WUHU21636XXSP,2013-03-24 12:50:00,
2013-03-24 07:55:00,29.2,19.7,29.98,NE,45,0.0,0.0,67,0.00,,,0.00,WUHU21636XXSP,2013-03-24 12:55:00,
2013-03-24 08:00:00,29.4,19.9,29.98,NE,45,0.0,0.0,67,0.00,,,0.00,WUHU21636XXSP,2013-03-24 13:00:00,
2013-03-24 08:05:00,29.6,20.1,29.97,NE,45,0.0,0.0,67,0.00,,,0.00,WUHU21636XXSP,2013-03-24 13:05:00,
2013-03-24 08:10:00,29.6,19.7,29.97,NE,45,0.0,0.0,66,0.00,,,0.00,WUHU21636XXSP,2013-03-24 13:10:00,
2013-03-24 08:15:00,29.8,20.3,29.97,East,90,0.0,0.0,67,0.00,,,0.00,WUHU21636XXSP,2013-03-24 13:15:00,
2013-03-24 08:20:00,29.9,20.4,29.98,East,90,0.0,0.0,67,0.00,,,0.00,WUHU21636XXSP,2013-03-24 13:20:00,
2013-03-24 08:25:00,29.9,19.6,29.97,NE,45,0.0,0.0,65,0.00,,,0.00,WUHU21636XXSP,2013-03-24 13:25:00,
2013-03-24 08:30:00,29.9,19.3,29.98,ENE,67,0.0,0.0,64,0.00,,,0.00,WUHU21636XXSP,2013-03-24 13:30:00,
2013-03-24 08:35:00,29.9,19.3,29.97,East,90,0.0,0.0,64,0.00,,,0.00,WUHU21636XXSP,2013-03-24 13:35:00,
2013-03-24 08:40:00,29.9,19.6,29.97,East,90,0.0,0.0,65,0.00,,,0.00,WUHU21636XXSP,2013-03-24 13:40:00,
2013-03-24 08:45:00,30.1,19.8,29.97,East,90,0.0,0.0,65,0.00,,,0.00,WUHU21636XXSP,2013-03-24 13:45:00,
2013-03-24 08:50:00,30.1,19.5,29.97,ENE,67,0.0,0.0,64,0.00,,,0.00,WUHU21636XXSP,2013-03-24 13:50:00,
2013-03-24 08:55:00,29.9,18.9,29.97,WNW,292,0.0,0.0,63,0.00,,,0.00,WUHU21636XXSP,2013-03-24 13:55:00,
2013-03-24 09:00:00,29.9,18.9,29.97,WNW,292,0.0,0.0,63,0.00,,,0.00,WUHU21636XXSP,2013-03-24 14:00:00,
2013-03-24 09:05:00,30.1,19.1,29.97,WNW,292,0.0,0.0,63,0.00,,,0.00,WUHU21636XXSP,2013-03-24 14:05:00,
2013-03-24 09:10:00,30.8,20.1,29.97,ENE,67,0.0,0.0,64,0.00,,,0.00,WUHU21636XXSP,2013-03-24 14:10:00,
2013-03-24 09:15:00,30.9,20.2,29.97,NW,315,0.0,0.0,64,0.00,,,0.00,WUHU21636XXSP,2013-03-24 14:15:00,
2013-03-24 09:20:00,30.9,19.8,29.97,NW,315,0.0,0.0,63,0.00,,,0.00,WUHU21636XXSP,2013-03-24 14:20:00,
2013-03-24 09:25:00,30.9,20.2,29.97,NNW,337,0.0,0.0,64,0.00,,,0.00,WUHU21636XXSP,2013-03-24 14:25:00,
2013-03-24 09:30:00,30.9,19.8,29.97,NE,45,0.0,0.0,63,0.00,,,0.00,WUHU21636XXSP,2013-03-24 14:30:00,
2013-03-24 09:35:00,31.1,20.4,29.97,ENE,67,0.0,0.0,64,0.00,,,0.00,WUHU21636XXSP,2013-03-24 14:35:00,
2013-03-24 09:40:00,30.9,19.4,29.96,SE,135,0.0,0.0,62,0.00,,,0.00,WUHU21636XXSP,2013-03-24 14:40:00,
2013-03-24 09:45:00,30.9,19.4,29.96,WNW,292,0.0,0.0,62,0.00,,,0.00,WUHU21636XXSP,2013-03-24 14:45:00,
2013-03-24 09:50:00,30.9,19.8,29.96,ENE,67,0.0,0.0,63,0.00,,,0.00,WUHU21636XXSP,2013-03-24 14:50:00,
2013-03-24 09:55:00,31.5,20.4,29.96,NE,45,0.0,0.0,63,0.00,,,0.00,WUHU21636XXSP,2013-03-24 14:55:00,
2013-03-24 10:00:00,31.8,20.3,29.95,West,270,0.0,0.0,62,0.00,,,0.00,WUHU21636XXSP,2013-03-24 15:00:00,
2013-03-24 10:05:00,31.8,20.3,29.95,ENE,67,0.0,0.0,62,0.00,,,0.00,WUHU21636XXSP,2013-03-24 15:05:00,
2013-03-24 10:10:00,32.0,20.5,29.95,ENE,67,0.0,0.0,62,0.00,,,0.00,WUHU21636XXSP,2013-03-24 15:10:00,
2013-03-24 10:15:00,32.7,21.1,29.95,ENE,67,0.0,0.0,62,0.00,,,0.00,WUHU21636XXSP,2013-03-24 15:15:00,
2013-03-24 10:20:00,33.0,21.0,29.94,North,0,0.0,0.0,61,0.00,,,0.00,WUHU21636XXSP,2013-03-24 15:20:00,
2013-03-24 10:25:00,33.0,21.0,29.94,NE,45,0.0,0.0,61,0.00,,,0.00,WUHU21636XXSP,2013-03-24 15:25:00,
2013-03-24 10:30:00,33.4,21.0,29.94,East,90,0.0,0.0,60,0.00,,,0.00,WUHU21636XXSP,2013-03-24 15:30:00,
2013-03-24 10:35:00,33.7,21.3,29.94,NNW,337,0.0,0.0,60,0.00,,,0.00,WUHU21636XXSP,2013-03-24 15:35:00,
2013-03-24 10:40:00,33.7,20.9,29.94,East,90,0.0,0.0,59,0.00,,,0.00,WUHU21636XXSP,2013-03-24 15:40:00,
2013-03-24 10:45:00,34.3,21.5,29.94,ENE,67,0.0,0.0,59,0.00,,,0.00,WUHU21636XXSP,2013-03-24 15:45:00,
2013-03-24 10:50:00,33.9,21.1,29.94,NE,45,0.0,0.0,59,0.00,,,0.00,WUHU21636XXSP,2013-03-24 15:50:00,
2013-03-24 10:55:00,33.7,20.9,29.94,NE,45,0.0,0.0,59,0.00,,,0.00,WUHU21636XXSP,2013-03-24 15:55:00,
2013-03-24 11:00:00,33.7,21.3,29.94,ENE,67,0.0,0.0,60,0.00,,,0.00,WUHU21636XXSP,2013-03-24 16:00:00,
2013-03-24 11:05:00,33.7,20.9,29.94,NE,45,0.0,0.0,59,0.00,,,0.00,WUHU21636XXSP,2013-03-24 16:05:00,
2013-03-24 11:10:00,33.7,21.3,29.93,ENE,67,0.0,0.0,60,0.00,,,0.00,WUHU21636XXSP,2013-03-24 16:10:00,
2013-03-24 11:15:00,33.7,21.3,29.93,East,90,0.0,0.0,60,0.00,,,0.00,WUHU21636XXSP,2013-03-24 16:15:00,
2013-03-24 11:20:00,34.1,21.7,29.94,ESE,112,0.0,0.0,60,0.00,,,0.00,WUHU21636XXSP,2013-03-24 16:20:00,
2013-03-24 11:25:00,33.9,21.5,29.93,WNW,292,0.0,0.0,60,0.00,,,0.00,WUHU21636XXSP,2013-03-24 16:25:00,
2013-03-24 11:30:00,33.9,22.3,29.93,ENE,67,0.0,0.0,62,0.00,,,0.00,WUHU21636XXSP,2013-03-24 16:30:00,
2013-03-24 11:35:00,34.1,22.9,29.94,ENE,67,0.0,0.0,63,0.00,,,0.00,WUHU21636XXSP,2013-03-24 16:35:00,
2013-03-24 11:40:00,34.5,23.3,29.94,ENE,67,0.0,0.0,63,0.00,,,0.00,WUHU21636XXSP,2013-03-24 16:40:00,
2013-03-24 11:45:00,34.7,23.8,29.94,ENE,67,0.0,0.0,64,0.00,,,0.00,WUHU21636XXSP,2013-03-24 16:45:00,
2013-03-24 11:50:00,34.9,24.0,29.94,East,90,0.0,0.0,64,0.00,,,0.00,WUHU21636XXSP,2013-03-24 16:50:00,
2013-03-24 11:55:00,35.1,24.2,29.94,ENE,67,0.0,0.0,64,0.00,,,0.00,WUHU21636XXSP,2013-03-24 16:55:00,
2013-03-24 12:00:00,34.7,24.2,29.94,NNE,22,0.0,0.0,65,0.00,,,0.00,WUHU21636XXSP,2013-03-24 17:00:00,
2013-03-24 12:05:00,34.3,23.9,29.94,East,90,0.0,0.0,65,0.00,,,0.00,WUHU21636XXSP,2013-03-24 17:05:00,
2013-03-24 12:10:00,34.1,24.0,29.94,ENE,67,0.0,0.0,66,0.00,,,0.00,WUHU21636XXSP,2013-03-24 17:10:00,
2013-03-24 12:15:00,34.1,24.4,29.94,NE,45,0.0,0.0,67,0.00,,,0.00,WUHU21636XXSP,2013-03-24 17:15:00,
2013-03-24 12:20:00,34.3,24.6,29.94,ENE,67,0.0,0.0,67,0.00,,,0.00,WUHU21636XXSP,2013-03-24 17:20:00,
2013-03-24 12:25:00,34.3,24.6,29.94,NE,45,0.0,0.0,67,0.00,,,0.00,WUHU21636XXSP,2013-03-24 17:25:00,
2013-03-24 12:30:00,34.5,24.8,29.94,NW,315,0.0,0.0,67,0.00,,,0.00,WUHU21636XXSP,2013-03-24 17:30:00,
2013-03-24 12:35:00,34.1,24.7,29.93,ESE,112,0.0,0.0,68,0.00,,,0.00,WUHU21636XXSP,2013-03-24 17:35:00,
2013-03-24 12:40:00,34.3,24.9,29.93,ESE,112,0.0,0.0,68,0.00,,,0.00,WUHU21636XXSP,2013-03-24 17:40:00,
2013-03-24 12:45:00,34.7,25.6,29.93,NE,45,0.0,0.0,69,0.00,,,0.00,WUHU21636XXSP,2013-03-24 17:45:00,
2013-03-24 12:50:00,35.1,26.0,29.93,ENE,67,0.0,0.0,69,0.00,,,0.00,WUHU21636XXSP,2013-03-24 17:50:00,
2013-03-24 12:55:00,35.6,26.5,29.93,ENE,67,0.0,0.0,69,0.00,,,0.00,WUHU21636XXSP,2013-03-24 17:55:00,
2013-03-24 13:00:00,35.8,26.0,29.93,ENE,67,0.0,0.0,67,0.00,,,0.00,WUHU21636XXSP,2013-03-24 18:00:00,
2013-03-24 13:05:00,35.8,25.6,29.92,NE,45,0.0,0.0,66,0.00,,,0.00,WUHU21636XXSP,2013-03-24 18:05:00,
2013-03-24 13:10:00,35.8,26.0,29.92,East,90,0.0,0.0,67,0.00,,,0.00,WUHU21636XXSP,2013-03-24 18:10:00,
2013-03-24 13:15:00,36.2,26.4,29.92,NE,45,0.0,0.0,67,0.00,,,0.00,WUHU21636XXSP,2013-03-24 18:15:00,
2013-03-24 13:20:00,36.2,25.7,29.92,ESE,112,0.0,0.0,65,0.00,,,0.00,WUHU21636XXSP,2013-03-24 18:20:00,
2013-03-24 13:25:00,36.2,26.0,29.92,NE,45,0.0,0.0,66,0.00,,,0.00,WUHU21636XXSP,2013-03-24 18:25:00,
2013-03-24 13:30:00,35.1,24.9,29.92,WNW,292,0.0,0.0,66,0.00,,,0.00,WUHU21636XXSP,2013-03-24 18:30:00,
2013-03-24 13:35:00,34.9,25.4,29.92,ENE,67,0.0,0.0,68,0.00,,,0.00,WUHU21636XXSP,2013-03-24 18:35:00,
2013-03-24 13:40:00,34.9,25.4,29.91,NE,45,0.0,0.0,68,0.00,,,0.00,WUHU21636XXSP,2013-03-24 18:40:00,
2013-03-24 13:45:00,34.7,24.5,29.91,NE,45,0.0,0.0,66,0.00,,,0.00,WUHU21636XXSP,2013-03-24 18:45:00,
2013-03-24 13:51:00,34.9,25.1,29.91,WNW,292,0.0,0.0,67,0.00,,,0.00,WUHU21636XXSP,2013-03-24 18:51:00,
2013-03-24 13:55:00,35.1,25.3,29.91,ENE,67,0.0,0.0,67,0.00,,,0.00,WUHU21636XXSP,2013-03-24 18:55:00,
2013-03-24 14:00:00,34.9,25.1,29.91,ENE,67,0.0,0.0,67,0.00,,,0.00,WUHU21636XXSP,2013-03-24 19:00:00,
2013-03-24 14:05:00,35.3,25.8,29.91,NE,45,0.0,0.0,68,0.00,,,0.00,WUHU21636XXSP,2013-03-24 19:05:00,
2013-03-24 14:11:00,35.3,25.8,29.91,ENE,67,0.0,0.0,68,0.00,,,0.00,WUHU21636XXSP,2013-03-24 19:11:00,
2013-03-24 14:16:00,34.9,25.4,29.91,NNW,337,0.0,0.0,68,0.00,,,0.00,WUHU21636XXSP,2013-03-24 19:16:00,
2013-03-24 14:20:00,34.9,25.8,29.90,ENE,67,0.0,0.0,69,0.00,,,0.00,WUHU21636XXSP,2013-03-24 19:20:00,
2013-03-24 14:25:00,35.6,26.1,29.90,ESE,112,0.0,0.0,68,0.00,,,0.00,WUHU21636XXSP,2013-03-24 19:25:00,
2013-03-24 14:31:00,36.2,26.4,29.89,NE,45,0.0,0.0,67,0.00,,,0.00,WUHU21636XXSP,2013-03-24 19:31:00,
2013-03-24 14:36:00,36.2,26.8,29.89,NE,45,0.0,0.0,68,0.00,,,0.00,WUHU21636XXSP,2013-03-24 19:36:00,
2013-03-24 14:41:00,36.5,27.1,29.89,East,90,0.0,0.0,68,0.00,,,0.00,WUHU21636XXSP,2013-03-24 19:41:00,
2013-03-24 14:46:00,37.2,26.6,29.89,East,90,0.0,0.0,65,0.00,,,0.00,WUHU21636XXSP,2013-03-24 19:46:00,
2013-03-24 14:51:00,37.7,26.7,29.89,East,90,0.0,0.0,64,0.00,,,0.00,WUHU21636XXSP,2013-03-24 19:51:00,
2013-03-24 14:56:00,37.9,26.9,29.89,East,90,0.0,0.0,64,0.00,,,0.00,WUHU21636XXSP,2013-03-24 19:56:00,
2013-03-24 15:01:00,37.9,26.9,29.89,East,90,0.0,0.0,64,0.00,,,0.00,WUHU21636XXSP,2013-03-24 20:01:00,
2013-03-24 15:06:00,37.9,26.5,29.88,East,90,0.0,0.0,63,0.00,,,0.00,WUHU21636XXSP,2013-03-24 20:06:00,
2013-03-24 15:11:00,37.4,26.0,29.89,NE,45,0.0,0.0,63,0.00,,,0.00,WUHU21636XXSP,2013-03-24 20:11:00,
2013-03-24 15:16:00,37.0,26.4,29.88,ESE,112,0.0,0.0,65,0.02,,,0.02,WUHU21636XXSP,2013-03-24 20:16:00,
2013-03-24 15:21:00,37.0,26.4,29.88,ENE,67,0.0,0.0,65,0.02,,,0.02,WUHU21636XXSP,2013-03-24 20:21:00,
2013-03-24 15:26:00,36.8,26.2,29.88,East,90,0.0,0.0,65,0.02,,,0.02,WUHU21636XXSP,2013-03-24 20:26:00,
2013-03-24 15:31:00,36.8,26.2,29.88,ESE,112,0.0,0.0,65,0.02,,,0.02,WUHU21636XXSP,2013-03-24 20:31:00,
2013-03-24 15:36:00,36.8,26.2,29.88,ENE,67,0.0,0.0,65,0.02,,,0.02,WUHU21636XXSP,2013-03-24 20:36:00,
2013-03-24 15:41:00,36.5,25.6,29.88,NE,45,0.0,0.0,64,0.02,,,0.02,WUHU21636XXSP,2013-03-24 20:41:00,
2013-03-24 15:46:00,35.8,24.9,29.88,North,0,0.0,0.0,64,0.02,,,0.02,WUHU21636XXSP,2013-03-24 20:46:00,
2013-03-24 15:51:00,35.3,25.1,29.88,East,90,0.0,0.0,66,0.02,,,0.02,WUHU21636XXSP,2013-03-24 20:51:00,
2013-03-24 15:56:00,35.6,25.4,29.88,WNW,292,0.0,0.0,66,0.02,,,0.02,WUHU21636XXSP,2013-03-24 20:56:00,
2013-03-24 16:01:00,35.6,25.4,29.87,East,90,0.0,0.0,66,0.02,,,0.02,WUHU21636XXSP,2013-03-24 21:01:00,
2013-03-24 16:06:00,35.8,24.9,29.87,NNE,22,0.0,0.0,64,0.02,,,0.02,WUHU21636XXSP,2013-03-24 21:06:00,
2013-03-24 16:11:00,35.6,24.3,29.88,NW,315,0.0,0.0,63,0.02,,,0.02,WUHU21636XXSP,2013-03-24 21:11:00,
2013-03-24 16:16:00,35.3,24.4,29.88,ENE,67,0.0,0.0,64,0.02,,,0.02,WUHU21636XXSP,2013-03-24 21:16:00,
2013-03-24 16:21:00,35.3,24.4,29.88,NE,45,0.0,0.0,64,0.02,,,0.02,WUHU21636XXSP,2013-03-24 21:21:00,
2013-03-24 16:26:00,34.9,24.0,29.88,ENE,67,0.0,0.0,64,0.02,,,0.02,WUHU21636XXSP,2013-03-24 21:26:00,
2013-03-24 16:32:00,34.9,24.0,29.88,NE,45,0.0,0.0,64,0.02,,,0.02,WUHU21636XXSP,2013-03-24 21:32:00,
2013-03-24 16:37:00,34.7,23.0,29.87,NE,45,0.0,0.0,62,0.02,,,0.02,WUHU21636XXSP,2013-03-24 21:37:00,
2013-03-24 16:42:00,34.5,22.5,29.87,NE,45,0.0,0.0,61,0.02,,,0.02,WUHU21636XXSP,2013-03-24 21:42:00,
2013-03-24 16:47:00,34.1,22.5,29.87,ENE,67,0.0,0.0,62,0.02,,,0.02,WUHU21636XXSP,2013-03-24 21:47:00,
2013-03-24 16:52:00,33.9,22.7,29.87,NE,45,0.0,0.0,63,0.02,,,0.02,WUHU21636XXSP,2013-03-24 21:52:00,
2013-03-24 16:57:00,34.1,22.9,29.87,NE,45,0.0,0.0,63,0.02,,,0.02,WUHU21636XXSP,2013-03-24 21:57:00,
2013-03-24 17:02:00,34.3,22.7,29.87,East,90,0.0,0.0,62,0.00,,,0.02,WUHU21636XXSP,2013-03-24 22:02:00,
2013-03-24 17:07:00,34.3,23.1,29.87,East,90,0.0,0.0,63,0.00,,,0.02,WUHU21636XXSP,2013-03-24 22:07:00,
2013-03-24 17:12:00,33.9,22.3,29.87,East,90,0.0,0.0,62,0.00,,,0.02,WUHU21636XXSP,2013-03-24 22:12:00,
2013-03-24 17:17:00,33.4,21.8,29.88,North,0,0.0,0.0,62,0.00,,,0.02,WUHU21636XXSP,2013-03-24 22:17:00,
2013-03-24 17:22:00,33.4,22.2,29.87,East,90,0.0,0.0,63,0.00,,,0.02,WUHU21636XXSP,2013-03-24 22:22:00,
2013-03-24 17:27:00,33.4,22.2,29.87,East,90,0.0,0.0,63,0.00,,,0.02,WUHU21636XXSP,2013-03-24 22:27:00,
2013-03-24 17:32:00,33.4,22.6,29.87,ESE,112,0.0,0.0,64,0.00,,,0.02,WUHU21636XXSP,2013-03-24 22:32:00,
2013-03-24 17:37:00,33.4,22.6,29.87,ESE,112,0.0,0.0,64,0.00,,,0.02,WUHU21636XXSP,2013-03-24 22:37:00,
2013-03-24 17:42:00,33.4,22.2,29.87,East,90,0.0,0.0,63,0.00,,,0.02,WUHU21636XXSP,2013-03-24 22:42:00,
2013-03-24 17:47:00,33.4,22.6,29.87,SW,225,0.0,0.0,64,0.00,,,0.02,WUHU21636XXSP,2013-03-24 22:47:00,
2013-03-24 17:52:00,33.2,21.6,29.88,SW,225,0.0,0.0,62,0.00,,,0.02,WUHU21636XXSP,2013-03-24 22:52:00,
2013-03-24 17:57:00,33.2,22.0,29.88,WSW,247,0.0,0.0,63,0.00,,,0.02,WUHU21636XXSP,2013-03-24 22:57:00,
2013-03-24 18:02:00,33.4,21.8,29.87,WSW,247,0.0,0.0,62,0.00,,,0.02,WUHU21636XXSP,2013-03-24 23:02:00,
2013-03-24 18:07:00,33.4,21.8,29.88,WSW,247,0.0,0.0,62,0.00,,,0.02,WUHU21636XXSP,2013-03-24 23:07:00,
2013-03-24 18:12:00,33.6,22.0,29.88,WSW,247,0.0,0.0,62,0.00,,,0.02,WUHU21636XXSP,2013-03-24 23:12:00,
2013-03-24 18:17:00,33.6,22.0,29.88,SW,225,0.0,0.0,62,0.00,,,0.02,WUHU21636XXSP,2013-03-24 23:17:00,
2013-03-24 18:22:00,33.4,21.8,29.88,SW,225,0.0,0.0,62,0.00,,,0.02,WUHU21636XXSP,2013-03-24 23:22:00,
2013-03-24 18:27:00,33.4,21.4,29.88,SW,225,0.0,0.0,61,0.00,,,0.02,WUHU21636XXSP,2013-03-24 23:27:00,
2013-03-24 18:32:00,33.4,21.4,29.88,WSW,247,0.0,0.0,61,0.00,,,0.02,WUHU21636XXSP,2013-03-24 23:32:00,
2013-03-24 18:37:00,33.2,21.2,29.88,WSW,247,0.0,0.0,61,0.00,,,0.02,WUHU21636XXSP,2013-03-24 23:37:00,
2013-03-24 18:42:00,33.0,21.4,29.88,WSW,247,0.0,0.0,62,0.00,,,0.02,WUHU21636XXSP,2013-03-24 23:42:00,
2013-03-24 18:47:00,33.0,21.4,29.88,SW,225,0.0,0.0,62,0.00,,,0.02,WUHU21636XXSP,2013-03-24 23:47:00,
2013-03-24 18:52:00,33.0,21.4,29.88,SSE,157,0.0,0.0,62,0.00,,,0.02,WUHU21636XXSP,2013-03-24 23:52:00,
2013-03-24 18:57:00,33.0,21.4,29.88,SSE,157,0.0,0.0,62,0.00,,,0.02,WUHU21636XXSP,2013-03-24 23:57:00,
2013-03-24 19:02:00,32.8,21.2,29.89,SSE,157,0.0,0.0,62,0.00,,,0.02,WUHU21636XXSP,2013-03-25 00:02:00,
2013-03-24 19:07:00,32.8,21.2,29.89,SSE,157,0.0,0.0,62,0.00,,,0.02,WUHU21636XXSP,2013-03-25 00:07:00,
2013-03-24 19:12:00,32.7,21.1,29.89,SSW,202,0.0,0.0,62,0.00,,,0.02,WUHU21636XXSP,2013-03-25 00:12:00,
2013-03-24 19:17:00,32.7,21.5,29.89,SSW,202,0.0,0.0,63,0.00,,,0.02,WUHU21636XXSP,2013-03-25 00:17:00,
2013-03-24 19:22:00,32.4,21.3,29.89,SSW,202,0.0,0.0,63,0.00,,,0.02,WUHU21636XXSP,2013-03-25 00:22:00,
2013-03-24 19:27:00,32.4,21.7,29.89,SSW,202,0.0,0.0,64,0.00,,,0.02,WUHU21636XXSP,2013-03-25 00:27:00,
2013-03-24 19:32:00,32.4,21.3,29.89,SSW,202,0.0,0.0,63,0.00,,,0.02,WUHU21636XXSP,2013-03-25 00:32:00,
2013-03-24 19:37:00,32.0,20.9,29.90,SSW,202,0.0,0.0,63,0.00,,,0.02,WUHU21636XXSP,2013-03-25 00:37:00,
2013-03-24 19:42:00,32.0,21.3,29.90,SSW,202,0.0,0.0,64,0.00,,,0.02,WUHU21636XXSP,2013-03-25 00:42:00,
2013-03-24 19:47:00,32.0,20.9,29.90,SSW,202,0.0,0.0,63,0.00,,,0.02,WUHU21636XXSP,2013-03-25 00:47:00,
2013-03-24 19:52:00,32.0,20.9,29.89,SSW,202,0.0,0.0,63,0.00,,,0.02,WUHU21636XXSP,2013-03-25 00:52:00,
2013-03-24 19:57:00,31.8,20.3,29.89,SSW,202,0.0,0.0,62,0.00,,,0.02,WUHU21636XXSP,2013-03-25 00:57:00,
2013-03-24 20:02:00,31.8,20.3,29.90,WSW,247,0.0,0.0,62,0.00,,,0.02,WUHU21636XXSP,2013-03-25 01:02:00,
2013-03-24 20:07:00,31.8,20.7,29.90,South,180,0.0,0.0,63,0.00,,,0.02,WUHU21636XXSP,2013-03-25 01:07:00,
2013-03-24 20:12:00,31.8,20.7,29.90,ESE,112,0.0,0.0,63,0.00,,,0.02,WUHU21636XXSP,2013-03-25 01:12:00,
2013-03-24 20:17:00,31.8,20.7,29.90,ESE,112,0.0,0.0,63,0.00,,,0.02,WUHU21636XXSP,2013-03-25 01:17:00,
2013-03-24 20:22:00,31.8,20.7,29.90,ENE,67,0.0,0.0,63,0.00,,,0.02,WUHU21636XXSP,2013-03-25 01:22:00,
2013-03-24 20:27:00,31.8,21.1,29.90,ENE,67,0.0,0.0,64,0.00,,,0.02,WUHU21636XXSP,2013-03-25 01:27:00,
2013-03-24 20:32:00,31.8,20.7,29.91,ENE,67,0.0,0.0,63,0.00,,,0.02,WUHU21636XXSP,2013-03-25 01:32:00,
2013-03-24 20:37:00,31.8,21.1,29.91,South,180,0.0,0.0,64,0.00,,,0.02,WUHU21636XXSP,2013-03-25 01:37:00,
2013-03-24 20:42:00,31.5,20.8,29.91,SSW,202,0.0,0.0,64,0.00,,,0.02,WUHU21636XXSP,2013-03-25 01:42:00,
2013-03-24 20:47:00,31.5,20.8,29.91,South,180,0.0,0.0,64,0.00,,,0.02,WUHU21636XXSP,2013-03-25 01:47:00,
2013-03-24 20:52:00,31.5,20.8,29.91,South,180,0.0,0.0,64,0.00,,,0.02,WUHU21636XXSP,2013-03-25 01:52:00,
2013-03-24 20:57:00,31.5,20.8,29.91,WSW,247,0.0,0.0,64,0.00,,,0.02,WUHU21636XXSP,2013-03-25 01:57:00,
2013-03-24 21:02:00,31.5,20.8,29.91,WSW,247,0.0,0.0,64,0.00,,,0.02,WUHU21636XXSP,2013-03-25 02:02:00,
2013-03-24 21:08:00,31.5,21.2,29.91,WSW,247,0.0,0.0,65,0.00,,,0.02,WUHU21636XXSP,2013-03-25 02:08:00,
2013-03-24 21:13:00,31.5,21.2,29.91,South,180,0.0,0.0,65,0.00,,,0.02,WUHU21636XXSP,2013-03-25 02:13:00,
2013-03-24 21:18:00,31.5,21.5,29.91,South,180,0.0,0.0,66,0.00,,,0.02,WUHU21636XXSP,2013-03-25 02:18:00,
2013-03-24 21:23:00,31.5,22.6,29.91,South,180,0.0,0.0,69,0.00,,,0.02,WUHU21636XXSP,2013-03-25 02:23:00,
2013-03-24 21:28:00,31.8,22.9,29.91,SW,225,0.0,0.0,69,0.00,,,0.02,WUHU21636XXSP,2013-03-25 02:28:00,
2013-03-24 21:33:00,31.7,22.4,29.91,ESE,112,0.0,0.0,68,0.00,,,0.02,WUHU21636XXSP,2013-03-25 02:33:00,
2013-03-24 21:38:00,31.5,21.9,29.91,ESE,112,0.0,0.0,67,0.00,,,0.02,WUHU21636XXSP,2013-03-25 02:38:00,
2013-03-24 21:43:00,31.5,22.2,29.91,ESE,112,0.0,0.0,68,0.00,,,0.02,WUHU21636XXSP,2013-03-25 02:43:00,
2013-03-24 21:48:00,31.5,21.9,29.91,ESE,112,0.0,0.0,67,0.00,,,0.02,WUHU21636XXSP,2013-03-25 02:48:00,
2013-03-24 21:53:00,31.5,22.2,29.91,ESE,112,0.0,0.0,68,0.00,,,0.02,WUHU21636XXSP,2013-03-25 02:53:00,
2013-03-24 21:58:00,31.5,21.9,29.91,ESE,112,0.0,0.0,67,0.00,,,0.02,WUHU21636XXSP,2013-03-25 02:58:00,
2013-03-24 22:03:00,31.5,21.9,29.91,ESE,112,0.0,0.0,67,0.00,,,0.02,WUHU21636XXSP,2013-03-25 03:03:00,
2013-03-24 22:08:00,31.5,21.9,29.91,ESE,112,0.0,0.0,67,0.00,,,0.02,WUHU21636XXSP,2013-03-25 03:08:00,
2013-03-24 22:13:00,31.5,21.2,29.90,SE,135,0.0,0.0,65,0.00,,,0.02,WUHU21636XXSP,2013-03-25 03:13:00,
2013-03-24 22:18:00,31.3,20.9,29.91,South,180,0.0,0.0,65,0.00,,,0.02,WUHU21636XXSP,2013-03-25 03:18:00,
2013-03-24 22:23:00,31.3,20.9,29.91,SW,225,0.0,0.0,65,0.00,,,0.02,WUHU21636XXSP,2013-03-25 03:23:00,
2013-03-24 22:28:00,31.3,21.3,29.90,SW,225,0.0,0.0,66,0.00,,,0.02,WUHU21636XXSP,2013-03-25 03:28:00,
2013-03-24 22:33:00,31.3,21.3,29.91,SW,225,0.0,0.0,66,0.00,,,0.02,WUHU21636XXSP,2013-03-25 03:33:00,
2013-03-24 22:38:00,31.3,20.9,29.91,SSW,202,0.0,0.0,65,0.00,,,0.02,WUHU21636XXSP,2013-03-25 03:38:00,
2013-03-24 22:43:00,31.1,21.1,29.90,SW,225,0.0,0.0,66,0.00,,,0.02,WUHU21636XXSP,2013-03-25 03:43:00,
2013-03-24 22:48:00,31.1,20.7,29.91,SW,225,0.0,0.0,65,0.00,,,0.02,WUHU21636XXSP,2013-03-25 03:48:00,
2013-03-24 22:53:00,31.1,20.7,29.91,South,180,0.0,0.0,65,0.00,,,0.02,WUHU21636XXSP,2013-03-25 03:53:00,
2013-03-24 22:58:00,31.1,20.7,29.91,WSW,247,0.0,0.0,65,0.00,,,0.02,WUHU21636XXSP,2013-03-25 03:58:00,
2013-03-24 23:00:00,31.1,20.7,29.91,WSW,247,0.0,0.0,65,0.00,,,0.02,WUHU21636XXSP,2013-03-25 04:00:00,
2013-03-24 23:05:00,31.1,20.4,29.91,WNW,292,0.0,0.0,64,0.00,,,0.02,WUHU21636XXSP,2013-03-25 04:05:00,
2013-03-24 23:10:00,30.9,20.2,29.91,West,270,0.0,0.0,64,0.00,,,0.02,WUHU21636XXSP,2013-03-25 04:10:00,
2013-03-24 23:15:00,30.9,20.2,29.91,SSE,157,0.0,0.0,64,0.00,,,0.02,WUHU21636XXSP,2013-03-25 04:15:00,
2013-03-24 23:20:00,30.9,21.3,29.91,SSE,157,0.0,0.0,67,0.00,,,0.02,WUHU21636XXSP,2013-03-25 04:20:00,
2013-03-24 23:25:00,30.9,20.9,29.91,SW,225,0.0,0.0,66,0.00,,,0.02,WUHU21636XXSP,2013-03-25 04:25:00,
2013-03-24 23:30:00,30.9,20.9,29.90,SSW,202,0.0,0.0,66,0.00,,,0.02,WUHU21636XXSP,2013-03-25 04:30:00,
2013-03-24 23:35:00,30.9,20.9,29.91,SSW,202,0.0,0.0,66,0.00,,,0.02,WUHU21636XXSP,2013-03-25 04:35:00,
2013-03-24 23:40:00,30.9,21.3,29.91,SE,135,0.0,0.0,67,0.00,,,0.02,WUHU21636XXSP,2013-03-25 04:40:00,
2013-03-24 23:45:00,30.9,21.3,29.91,SE,135,0.0,0.0,67,0.00,,,0.02,WUHU21636XXSP,2013-03-25 04:45:00,
2013-03-24 23:50:00,30.9,21.3,29.91,SE,135,0.0,0.0,67,0.00,,,0.02,WUHU21636XXSP,2013-03-25 04:50:00,
2013-03-24 23:55:00,30.9,21.6,29.91,WSW,247,0.0,0.0,68,0.00,,,0.02,WUHU21636XXSP,2013-03-25 04:55:00,